星链-2672 (STARLINK-2672 )

导读 | 豆包AI

STARLINK-2672是美国太空探索技术公司星链计划中的一颗卫星,于2021年5月26日发射升空,归属美国所有,属于星链卫星互联网星座组网卫星,旨在为全球提供高速低延迟的互联网接入服务,目前该卫星已在轨运行多年,服务于星链星座的全球通信网络覆盖。

基本信息
目录编号:
48650
目录名称:
STARLINK-2672
国际标识:
2021-044N
轨道中心:
EARTH
卫星名称:
星链-2672
卫星全名:
星链-2672 (STARLINK-2672 )
卫星状态:
在轨 (已飞行1753 天)
发射日期:
2021-05-26 UTC
国别 :
美国 (US)
星等 :
--
轨道信息
数据来源 国际轨道数据
星历时间: 2026-03-14T14:41:59+0800
9小时前
查看轨道信息
半长轴: 6853.373km
偏心率: 0.000113
轨道倾角: 53.161°
近地点辐角 88.886°
升交点赤经 92.622°
平近点角 271.227°
近地点: 474.461km
远地点: 476.011km
周期: 94.106分钟
每日圈数: 15.301932
详细信息
固有亮度:
5
最大亮度:
2.5
卫星平台:
Starlink V1.0
覆盖范围:
全球
运营商:
太空探索技术公司
运营商所在国:
美国
制造商(研发单位):
太空探索技术公司
制造商所在国:
美国
使用方式:
暂无
卫星简介
星链(Starlink)计划是由太空探索技术公司(SpaceX)提出的一个巨型低轨卫星互联网星座项目,计划在2019年至2024年间在太空搭建由约1.2万颗卫星组成的“星链”网络,其中1584颗将部署在地球上空550千米处的近地轨道,并从2020年开始工作。该卫星仍在工作。
2D轨道图
3D轨道图
轨道高度分析图
轨道倾角分析图
轨道综合分析图
查看轨道综合分析图